Weather History for K0F2 - October, 2012

Change the Weather History Date:

Monday, October 22, 2012

  Actual Average (KSPS) Record (KSPS)
Temperature  
Mean Temperature 70 °F 62 °F  
Max Temperature 77 °F 75 °F 93 °F (1939)
Min Temperature 64 °F 50 °F 32 °F (1990)
Degree Days  
Heating Degree Days 0 4  
Month to date heating degree days 59  
Since 1 July heating degree days 72  
Cooling Degree Days 6 2  
Month to date cooling degree days 83  
Year to date cooling degree days 2362  
Growing Degree Days 20 (Base 50)    
Moisture  
Dew Point 64 °F    
Average Humidity 81    
Maximum Humidity 100    
Minimum Humidity 61    
Precipitation  
Precipitation 0.38 in 0.11 in 1.75 in (1953)
Month to date precipitation 2.24  
Year to date precipitation 24.78  
Snow  
Snow 0.00 in 0.00 in - ()
Month to date snowfall 0.0  
Since 1 July snowfall 0.0  
Snow Depth -    
Sea Level Pressure  
Sea Level Pressure 29.92 in    
Wind  
Wind Speed 10 mph (SSE)    
Max Wind Speed 21 mph    
Max Gust Speed 30 mph    
Visibility 10 miles    
Events Rain , Thunderstorm    
T = Trace of Precipitation, MM = Missing Value Source: NWS Daily Summary

Daily Weather History Graph

Daily Weather History Graph

Search for Another Location

Airport or City:

Trip Planner

Search our weather history database for the weather conditions in past years. The results will help you decide how hot, cold, wet, or windy it might be!

Date:

Astronomy

Oct. 22, 2012 Rise Set
Actual Time 7:41 AM CDT 6:48 PM CDT
Civil Twilight 7:16 AM CDT 7:13 PM CDT
Nautical Twilight 6:47 AM CDT 7:42 PM CDT
Astronomical Twilight 6:18 AM CDT 8:11 PM CDT
Moon 2:39 PM CDT (10/22) 12:50 AM CDT (10/22)
Length of Visible Light 11h 57m
Length of Day
11h 06m
First Quarter, 56% of the Moon is Illuminated
Oct 22
First Quarter
Oct 29
Full
Nov 6
Last Quarter
Nov 13
New
Nov 20
First Quarter

Hourly Weather History & Observations

Time (CDT) Temp. Dew Point Humidity Pressure Visibility Wind Dir Wind Speed Gust Speed Precip Events Conditions
12:15 AM 77.0 °F 62.6 °F 61% 29.84 in 10.0 mi SE 11.5 mph 20.7 mph N/A   Clear
12:55 AM 75.2 °F 64.4 °F 69% 29.85 in 10.0 mi SSE 12.7 mph 19.6 mph N/A   Clear
1:35 AM 73.4 °F 64.4 °F 73% 29.85 in 10.0 mi SSE 12.7 mph 19.6 mph N/A   Clear
1:55 AM 73.4 °F 64.4 °F 73% 29.85 in 10.0 mi SSE 11.5 mph 21.9 mph N/A   Clear
2:15 AM 73.4 °F 64.4 °F 73% 29.85 in 10.0 mi SSE 12.7 mph 17.3 mph N/A   Clear
2:35 AM 73.4 °F 64.4 °F 73% 29.86 in 10.0 mi SSE 13.8 mph 20.7 mph N/A   Clear
2:55 AM 73.4 °F 64.4 °F 73% 29.86 in 10.0 mi SSE 12.7 mph 19.6 mph N/A   Clear
3:15 AM 73.4 °F 64.4 °F 73% 29.86 in 10.0 mi SSE 11.5 mph 20.7 mph N/A   Clear
3:55 AM 71.6 °F 62.6 °F 73% 29.87 in 10.0 mi SSE 13.8 mph 19.6 mph N/A   Clear
4:15 AM 71.6 °F 64.4 °F 78% 29.87 in 10.0 mi SSE 12.7 mph 21.9 mph N/A   Clear
4:35 AM 71.6 °F 64.4 °F 78% 29.87 in 10.0 mi SSE 12.7 mph 17.3 mph N/A   Clear
4:55 AM 71.6 °F 64.4 °F 78% 29.88 in 10.0 mi SSE 10.4 mph 19.6 mph N/A   Clear
5:15 AM 71.6 °F 64.4 °F 78% 29.89 in 10.0 mi SSE 10.4 mph - N/A   Clear
5:35 AM 71.6 °F 64.4 °F 78% 29.90 in 10.0 mi SSE 10.4 mph 16.1 mph N/A   Clear
5:55 AM 71.6 °F 64.4 °F 78% 29.90 in 10.0 mi SSE 9.2 mph 16.1 mph N/A   Scattered Clouds
6:15 AM 71.6 °F 64.4 °F 78% 29.90 in 10.0 mi SE 10.4 mph - N/A   Clear
6:35 AM 71.6 °F 64.4 °F 78% 29.91 in 10.0 mi SSE 9.2 mph - N/A   Clear
6:55 AM 71.6 °F 64.4 °F 78% 29.92 in 10.0 mi SSE 6.9 mph - N/A   Clear
7:15 AM 69.8 °F 64.4 °F 83% 29.92 in 10.0 mi SE 10.4 mph - N/A   Clear
7:35 AM 69.8 °F 64.4 °F 83% 29.92 in 10.0 mi SE 10.4 mph - N/A   Clear
7:55 AM 69.8 °F 64.4 °F 83% 29.93 in 10.0 mi SSE 8.1 mph - N/A   Scattered Clouds
8:15 AM 69.8 °F 64.4 °F 83% 29.93 in 10.0 mi ESE 6.9 mph - N/A   Mostly Cloudy
8:35 AM 69.8 °F 64.4 °F 83% 29.94 in 10.0 mi SE 9.2 mph - N/A   Mostly Cloudy
8:55 AM 71.6 °F 64.4 °F 78% 29.94 in 10.0 mi SE 10.4 mph 17.3 mph N/A   Scattered Clouds
9:15 AM 71.6 °F 64.4 °F 78% 29.95 in 10.0 mi SSE 13.8 mph 19.6 mph N/A   Clear
9:35 AM 73.4 °F 64.4 °F 73% 29.94 in 10.0 mi SSE 16.1 mph 28.8 mph N/A   Scattered Clouds
9:55 AM 77.0 °F 64.4 °F 65% 29.96 in 10.0 mi SSE 20.7 mph 27.6 mph N/A   Scattered Clouds
10:15 AM 75.2 °F 64.4 °F 69% 29.97 in 10.0 mi South 16.1 mph 27.6 mph N/A Thunderstorm Scattered Clouds
10:35 AM 73.4 °F 64.4 °F 73% 29.98 in 10.0 mi South 15.0 mph 21.9 mph N/A   Mostly Cloudy
10:55 AM 73.4 °F 64.4 °F 73% 29.99 in 10.0 mi SSW 13.8 mph 19.6 mph N/A   Overcast
11:15 AM 73.4 °F 64.4 °F 73% 30.00 in 10.0 mi SSW 8.1 mph - N/A Rain , Thunderstorm Light Thunderstorms and Rain
11:35 AM 69.8 °F 62.6 °F 78% 30.02 in 10.0 mi SSW 11.5 mph 18.4 mph N/A Rain , Thunderstorm Light Thunderstorms and Rain
11:55 AM 64.4 °F 62.6 °F 94% 30.06 in 1.2 mi WSW 13.8 mph 29.9 mph 0.26 in Rain , Thunderstorm Heavy Thunderstorms and Rain
12:15 PM 64.4 °F 62.6 °F 94% 30.05 in 7.0 mi WSW 10.4 mph 18.4 mph 0.07 in Rain , Thunderstorm Light Thunderstorms and Rain
12:35 PM 64.4 °F 62.6 °F 94% 30.04 in 7.0 mi WSW 4.6 mph - 0.10 in Rain , Thunderstorm Light Thunderstorms and Rain
12:55 PM 64.4 °F 62.6 °F 94% 30.03 in 10.0 mi WSW 4.6 mph - 0.11 in Rain , Thunderstorm Light Thunderstorms and Rain
1:15 PM 64.4 °F 62.6 °F 94% 30.02 in 10.0 mi WSW 3.5 mph - N/A Rain Rain
1:35 PM 66.2 °F 62.6 °F 88% 29.98 in 10.0 mi Calm Calm - N/A Rain Light Rain
1:55 PM 66.2 °F 62.6 °F 88% 29.96 in 10.0 mi Calm Calm - N/A   Light Drizzle
2:15 PM 68.0 °F 62.6 °F 83% 29.95 in 10.0 mi Calm Calm - N/A   Clear
2:35 PM 68.0 °F 64.4 °F 88% 29.95 in 10.0 mi ESE 4.6 mph - N/A Rain Light Rain
2:55 PM 68.0 °F 64.4 °F 88% 29.95 in 10.0 mi SSE 5.8 mph - N/A Rain , Thunderstorm Light Thunderstorms and Rain
3:15 PM 68.0 °F 64.4 °F 88% 29.90 in 10.0 mi East 6.9 mph - 0.01 in Rain Light Rain
3:35 PM 68.0 °F 64.4 °F 88% 29.90 in 10.0 mi SE 8.1 mph - 0.01 in   Mostly Cloudy
3:55 PM 69.8 °F 64.4 °F 83% 29.88 in 10.0 mi ESE 4.6 mph - 0.01 in Rain Light Rain
4:15 PM 69.8 °F 62.6 °F 78% 29.88 in 10.0 mi SE 9.2 mph - N/A   Scattered Clouds
4:35 PM 71.6 °F 62.6 °F 73% 29.87 in 10.0 mi ESE 9.2 mph - N/A   Scattered Clouds
4:55 PM 71.6 °F 62.6 °F 73% 29.86 in 10.0 mi ESE 5.8 mph - N/A   Clear
5:15 PM 71.6 °F 60.8 °F 69% 29.87 in 10.0 mi ESE 6.9 mph - N/A   Clear
5:35 PM 71.6 °F 60.8 °F 69% 29.87 in 10.0 mi SE 5.8 mph - N/A   Clear
5:55 PM 71.6 °F 60.8 °F 69% 29.89 in 10.0 mi Calm Calm - N/A   Clear
6:15 PM 73.4 °F 62.6 °F 69% 29.90 in 10.0 mi South 3.5 mph - N/A   Clear
6:35 PM 71.6 °F 62.6 °F 73% 29.90 in 10.0 mi South 3.5 mph - N/A   Clear
6:55 PM 68.0 °F 62.6 °F 83% 29.90 in 10.0 mi Calm Calm - N/A   Clear
7:15 PM 68.0 °F 62.6 °F 83% 29.90 in 10.0 mi Calm Calm - N/A   Clear
7:35 PM 64.4 °F 64.4 °F 100% 29.90 in 10.0 mi ESE 3.5 mph - N/A   Clear
7:55 PM 66.2 °F 62.6 °F 88% 29.90 in 10.0 mi ESE 4.6 mph - N/A   Clear
8:15 PM 66.2 °F 62.6 °F 88% 29.91 in 10.0 mi Calm Calm - N/A   Scattered Clouds
8:55 PM 66.2 °F 62.6 °F 88% 29.91 in 10.0 mi ESE 4.6 mph - N/A   Scattered Clouds
9:15 PM 66.2 °F 62.6 °F 88% 29.91 in 10.0 mi ESE 4.6 mph - N/A   Scattered Clouds
9:35 PM 66.2 °F 62.6 °F 88% 29.91 in 10.0 mi ESE 4.6 mph - N/A   Scattered Clouds
9:55 PM 64.4 °F 62.6 °F 94% 29.91 in 10.0 mi SE 5.8 mph - N/A   Scattered Clouds
10:15 PM 66.2 °F 64.4 °F 94% 29.91 in 10.0 mi ESE 4.6 mph - N/A   Scattered Clouds
10:35 PM 68.0 °F 64.4 °F 88% 29.91 in 10.0 mi ESE 5.8 mph - N/A   Scattered Clouds
10:55 PM 68.0 °F 66.2 °F 94% 29.90 in 10.0 mi SE 8.1 mph - N/A   Scattered Clouds
11:15 PM 69.8 °F 68.0 °F 94% 29.90 in 10.0 mi SE 9.2 mph - N/A   Clear
11:35 PM 69.8 °F 68.0 °F 94% 29.90 in 10.0 mi SE 9.2 mph - N/A   Clear